Wind_Speed
26 24 22 19 17 14 13 12 14 15 16 17 18 18 17 16 15 16 16 14 15 17 16 17 15 16 16 17 15 13 14 15
26 25 23 22 20 18 15 14 14 15 16 18 19 19 19 18 16 17 16 15 16 16 17 17 17 17 17 16 14 15 16 18
26 26 25 24 22 20 18 16 16 15 17 19 20 20 20 20 18 18 17 17 17 19 20 21 21 19 18 15 14 16 17 17
26 26 26 26 26 24 21 19 18 19 18 19 20 21 21 21 20 19 18 19 19 21 21 21 23 23 21 17 15 17 18 20
27 28 26 28 29 27 25 23 21 21 19 19 21 21 22 22 22 22 22 23 22 23 24 25 25 24 23 22 25 20 20 22
28 29 28 28 31 30 29 27 24 22 22 20 22 22 23 24 24 24 26 26 25 27 26 27 24 23 20 16 20 23 23 23
27 28 25 27 31 34 32 30 28 24 23 21 22 23 24 24 24 25 26 26 27 28 25 26 25 24 17 16 19 25 26 25
27 29 27 29 28 34 35 32 29 27 25 24 23 23 23 24 25 25 26 26 27 28 26 23 30 24 19 19 23 28 27 27
32 31 30 30 32 31 36 35 31 29 27 26 25 25 25 24 24 25 25 25 27 28 27 26 30 27 21 20 21 31 30 28
37 34 33 31 33 35 35 35 33 32 29 27 26 27 26 25 24 25 25 26 28 30 31 31 31 31 26 23 29 31 30 29
39 34 33 33 35 37 39 35 35 34 30 28 28 28 28 27 25 26 25 27 28 33 34 33 32 33 29 26 30 35 34 30
42 41 38 37 38 38 41 38 36 34 33 31 30 29 29 29 28 27 27 28 28 32 33 34 34 32 28 30 28 38 36 33
41 44 43 42 42 40 40 40 41 38 36 35 32 32 32 32 30 29 29 30 30 31 29 32 33 33 26 29 30 30 36 35
45 48 44 47 46 42 44 45 45 42 39 36 35 35 34 32 32 31 30 32 31 29 31 30 32 31 31 28 16 24 32 34
29 35 48 48 46 45 47 45 40 41 36 37 40 36 34 35 35 34 33 32 32 31 31 32 33 34 34 25 21 11 35 32
32 32 41 44 48 47 50 46 44 42 38 36 38 38 36 37 34 34 34 33 33 33 34 33 36 38 32 36 30 24 33 21
12 26 39 37 42 48 51 47 40 38 37 36 37 35 33 36 36 37 36 35 35 35 32 35 36 40 40 41 34 24 38 39
7 14 28 40 38 46 47 40 38 35 33 34 35 34 36 36 36 36 38 36 37 36 34 39 36 43 37 43 42 35 42 38
10 14 27 40 44 42 43 39 34 31 29 28 30 34 36 38 37 37 37 38 37 36 38 39 35 39 38 42 50 39 43 45
4 18 26 38 36 39 40 34 31 27 24 22 24 23 24 28 31 32 34 36 34 35 39 41 41 49 36 41 49 44 41 46
Wind_Direction
182 183 184 183 187 186 183 189 187 190 192 191 191 190 191 193 196 196 192 183 184 177 171 172 167 169 174 179 180 181 174 172
189 192 194 194 194 194 192 196 192 189 195 193 192 189 190 193 196 199 197 193 190 181 179 178 170 175 177 187 186 183 182 180
200 203 204 204 202 199 196 200 203 195 196 196 192 191 191 193 197 200 201 201 192 192 192 182 176 178 176 188 197 196 188 187
210 211 215 213 211 205 201 202 209 202 201 197 196 194 196 196 195 199 204 203 205 200 197 196 185 185 179 192 211 209 195 189
221 221 222 221 218 213 207 206 208 211 203 201 197 198 198 198 197 198 204 208 209 207 202 201 191 196 187 199 200 207 203 192
230 234 231 231 228 222 215 211 210 214 208 204 200 201 203 202 202 205 209 212 212 219 212 185 197 205 193 210 214 210 210 202
226 237 236 241 236 229 222 218 214 213 213 205 205 208 210 209 206 209 215 217 218 221 225 209 194 194 206 212 220 217 219 203
229 238 241 241 239 233 227 220 218 215 215 209 209 213 215 214 212 213 219 224 225 228 230 219 195 200 200 215 225 214 216 207
229 239 238 239 244 238 229 225 221 215 214 208 210 213 215 217 219 219 221 226 226 228 227 221 214 214 220 216 229 217 217 216
234 229 237 239 237 241 233 229 222 221 215 208 209 211 215 215 218 223 221 225 227 226 225 224 221 220 227 232 219 215 214 213
240 232 231 238 239 238 234 230 227 225 220 215 212 213 216 220 222 225 224 225 226 221 221 222 224 226 228 228 228 217 216 215
244 240 242 240 237 237 232 228 228 227 226 223 217 218 220 223 226 228 226 223 227 221 222 223 226 229 234 235 237 217 211 215
242 239 239 238 232 225 223 222 224 226 226 228 222 221 222 225 228 230 228 227 224 226 228 228 229 228 234 236 220 209 209 219
247 240 239 240 236 233 221 223 224 222 224 227 219 220 223 225 227 228 226 224 227 231 231 229 227 224 225 223 201 200 215 214
249 244 241 241 236 225 219 221 226 221 218 226 224 219 220 225 226 226 225 225 229 234 234 225 223 224 224 211 175 198 191 200
249 248 236 233 228 224 219 218 218 227 227 224 217 223 228 224 226 228 228 233 231 234 237 235 227 225 219 216 197 204 177 181
245 237 225 220 224 227 219 216 223 226 225 230 223 224 226 228 231 233 233 235 236 237 239 234 234 227 220 211 195 195 192 182
281 224 223 219 217 220 219 221 219 223 225 227 225 227 229 233 234 236 241 240 237 237 235 238 232 234 223 218 200 187 187 188
282 237 223 217 215 215 214 214 221 229 227 230 224 222 229 232 235 239 240 240 234 236 235 233 234 220 226 224 211 198 202 203
35 220 228 219 213 211 212 216 221 226 229 239 229 226 235 235 235 238 239 239 238 235 235 237 231 224 231 222 211 199 204 207
Height
1480 1483 1486 1487 1490 1493 1493 1495 1498 1500 1503 1505 1507 1510 1514 1516 1518 1521 1523 1526 1528 1530 1533 1535 1538 1538 1543 1545 1545 1547 1549 1550
1477 1481 1484 1486 1488 1491 1493 1494 1496 1498 1501 1503 1506 1509 1512 1515 1517 1519 1522 1525 1527 1530 1532 1534 1536 1537 1541 1545 1547 1548 1549 1550
1475 1478 1481 1484 1486 1488 1491 1493 1494 1495 1499 1501 1504 1506 1509 1513 1515 1518 1522 1524 1527 1529 1531 1533 1535 1537 1539 1544 1548 1549 1549 1550
1472 1475 1478 1481 1484 1485 1488 1490 1492 1493 1495 1498 1501 1504 1507 1510 1514 1517 1520 1523 1524 1528 1530 1533 1534 1536 1537 1539 1547 1549 1549 1549
1468 1471 1474 1477 1480 1483 1484 1487 1489 1491 1492 1495 1498 1501 1504 1508 1511 1514 1516 1519 1522 1525 1527 1529 1532 1533 1534 1537 1538 1545 1548 1549
1464 1466 1469 1473 1476 1479 1481 1483 1485 1487 1489 1491 1494 1497 1501 1504 1507 1510 1512 1515 1518 1521 1522 1528 1531 1533 1534 1536 1538 1540 1546 1547
1460 1461 1464 1468 1472 1474 1477 1479 1481 1484 1486 1487 1490 1494 1496 1500 1503 1506 1509 1512 1515 1518 1521 1525 1528 1531 1532 1534 1536 1538 1543 1545
1453 1455 1459 1462 1466 1468 1471 1475 1477 1480 1482 1484 1486 1490 1493 1495 1498 1502 1505 1508 1511 1515 1518 1521 1524 1527 1529 1532 1534 1536 1539 1542
1447 1449 1452 1456 1461 1464 1466 1470 1473 1475 1478 1480 1482 1485 1488 1491 1493 1497 1501 1504 1508 1511 1515 1519 1522 1524 1526 1527 1530 1532 1535 1539
1442 1444 1445 1449 1454 1459 1462 1464 1467 1471 1474 1476 1478 1481 1484 1487 1490 1493 1497 1500 1503 1506 1509 1513 1517 1519 1522 1524 1526 1528 1531 1535
1433 1436 1440 1443 1448 1453 1456 1459 1462 1466 1469 1472 1474 1477 1480 1483 1486 1489 1494 1497 1499 1501 1504 1508 1511 1514 1517 1520 1522 1524 1527 1530
1424 1428 1433 1437 1440 1446 1450 1456 1458 1461 1464 1467 1470 1473 1476 1479 1481 1485 1489 1492 1495 1497 1499 1503 1506 1510 1513 1514 1515 1517 1521 1526
1414 1419 1424 1428 1431 1437 1443 1449 1452 1455 1458 1461 1465 1469 1472 1474 1477 1481 1484 1487 1490 1493 1495 1498 1501 1505 1508 1506 1510 1509 1517 1520
1405 1409 1414 1418 1422 1428 1433 1440 1445 1449 1453 1456 1461 1464 1467 1470 1473 1477 1480 1483 1485 1488 1490 1493 1496 1499 1502 1503 1504 1511 1514 1516
1397 1400 1404 1409 1414 1419 1426 1432 1440 1443 1448 1452 1454 1457 1461 1464 1468 1471 1475 1478 1480 1482 1485 1487 1490 1493 1495 1497 1497 1505 1508 1512
1387 1391 1395 1400 1405 1410 1415 1422 1428 1433 1438 1443 1448 1452 1455 1458 1462 1465 1469 1472 1474 1476 1479 1482 1484 1486 1489 1491 1492 1497 1500 1509
1380 1387 1390 1393 1399 1403 1410 1417 1424 1429 1432 1437 1441 1447 1450 1453 1456 1459 1463 1465 1468 1470 1472 1475 1477 1480 1482 1485 1489 1492 1497 1500
1378 1381 1385 1390 1393 1398 1405 1414 1419 1423 1428 1430 1434 1440 1443 1447 1451 1453 1457 1459 1460 1463 1466 1469 1471 1473 1478 1480 1481 1485 1491 1496
1373 1376 1380 1384 1388 1393 1400 1407 1413 1417 1420 1423 1428 1432 1436 1440 1444 1447 1449 1451 1453 1456 1459 1461 1464 1467 1470 1473 1477 1481 1487 1491
1371 1376 1377 1381 1388 1393 1397 1403 1408 1412 1415 1418 1421 1425 1430 1435 1438 1441 1443 1446 1448 1450 1452 1454 1458 1460 1463 1467 1472 1477 1481 1486